Location: Poughquag
(41.6090°N, 73.6820°W)
Time: 08:10:53
(UTC-05:00)

Altair - Pass Details

Date: 04 December 2023
Orbit: 1501 x 1682 km, 47.2° (Epoch: 02 March)

Event Time Altitude Azimuth Distance (km) Brightness Sun altitude
Rises 12:34:25 0° 289° (WNW) 4,733 10.0 25.1°
Reaches altitude 10° 12:37:33 10° 292° (WNW) 3,726 9.5 25.0°
Maximum altitude 12:46:55 73° 17° (NNE) 1,576 7.8 24.5°
Drops below altitude 10° 12:56:05 10° 102° (ESE) 3,649 9.5 24.0°
Sets 12:59:07 0° 104° (ESE) 4,630 10.0 23.8°
